Погода в Уиллистоне

США     48°09′15″N   103°37′32″W
темп.,
°C
ветер,
м/с
пор.,
м/с
влажн.,
%
обл.,
%
осадки,
мм/ч
давл.,
гПа
погр.,
м
14 августа, вс
вс1401:00+21юв41063100 0.3 1012323
04:00+19вюв367294 0.0 1011113
07:00+19вюв1173100 0.0 101111
10:00+25юв115094 0.0 1012261
13:00+33ююз21312 0.0 10101199
16:00+35ю33190 0.0 10093073
19:00+35ююв352080 0.0 10072793
22:00+27ююв4836100 0.4 1009115
15 августа, пн
пн1501:00+23в51056100 0.4 1010184
04:00+22юв2354100 0.0 101038
07:00+20ссз366069 0.0 1011112
10:00+25ссв57510 0.0 1012546
13:00+30с45380 0.0 10111362
16:00+32с55262 0.0 10113125
19:00+32с44231 0.0 10103135
22:00+25с46330 0.0 101283
16 августа, вт
вт1601:00+21всв23625 0.0 101448
04:00+20в11691 0.0 101311
07:00+19ссз116917 0.0 101311
10:00+26всв33461 0.0 1014355
13:00+32в22240 0.0 10131798
16:00+34всв33184 0.0 10123315
19:00+33в43185 0.0 10113451
22:00+26вюв47295 0.0 101299
17 августа, ср
ср1701:00+23вюв412375 0.0 1013224
04:00+21ююв354833 0.0 101475
07:00+21в334436 0.0 101331
10:00+28ююв4629100 0.0 1012279
13:00+33юв662337 0.9 10121269
16:00+34в652098 0.9 10111499
19:00+28вюв793483 1.0 1010549
22:00+22всв374962 0.1 1013174
18 августа, чт
чт1801:00+19з336428 0.6 101556
04:00+18зсз33643 0.3 101551
07:00+19ссз410680 0.3 1014195
10:00+23с710590 0.0 1015683
13:00+26с79420 0.0 10151559
16:00+28с78350 0.0 10142253
19:00+27св473822 0.0 10142038
22:00+24св484351 0.0 1015513